Regional Weather Roundup
Issued by NWS

Home | Current Version | Previous Version | Graphics & Text | Print | Product List | Glossary On
Versions: 1 2 3 4 5 6 7 8 9 10 11 12 13 14 15 16 17 18 19 20 21 22 23 24 25 26 27 28 29 30 31 32 33 34 35 36 37 38 39 40 41 42 43 44 45 46 47 48 49
000
ASUS45 KCYS 042310
RWRWY

WYOMING REGIONAL WEATHER ROUNDUP
NATIONAL WEATHER SERVICE CHEYENNE WY
400 PM MST THU FEB 04 2016

NOTE:  "FAIR" INDICATES FEW OR NO CLOUDS BELOW 12,000 FEET
WITH NO SIGNIFICANT WEATHER AND/OR OBSTRUCTIONS TO VISIBILITY.

WYZ001-050000-
YELLOWSTONE NATIONAL PARK

CITY           SKY/WX    TMP DP  RH WIND       PRES   REMARKS
LK YELLOWSTONE   N/A     15   7  70 CALM      30.16R
W YELLOWSTONE  NOT AVBL

$$
WYZ002>013-054>058-071-098>099-050000-
NORTHERN WYOMING

CITY           SKY/WX    TMP DP  RH WIND       PRES   REMARKS
JACKSON        FLURRIES  21  16  79 S15       30.21F WCI   8
CODY           FAIR      36  10  35 W22G32    30.03S WCI  24
GREYBULL       FAIR      29   9  43 S9        30.12F WCI  20
WORLAND        FAIR      29  14  53 S7        30.13S WCI  22
SHERIDAN       PTSUNNY   36  21  55 E5        30.01R WCI  32
BUFFALO        FAIR      30  15  53 SE6       30.01R WCI  24
GILLETTE       CLOUDY    30  18  60 SW13      30.01F WCI  20
HULETT         CLOUDY    32  19  59 SW16      30.03S WCI  21
NEWCASTLE      FAIR      32  12  43 CALM      30.07F

$$
WYZ014>020-022>026-101>103-050000-
CENTRAL WYOMING

CITY           SKY/WX    TMP DP  RH WIND       PRES   REMARKS
BIG PINEY      PTSUNNY   21   9  59 W3        30.20R
PINEDALE       CLOUDY    21  12  68 NW12      30.21R WCI   9
DUBOIS         CLOUDY    25  12  58 NW20G26   30.11R WCI  11
LANDER         CLOUDY    32  12  43 N3        30.10R
RIVERTON       FAIR      19   6  57 CALM      30.10F
CASPER         LGT SNOW  21  17  84 SW21      30.11F VSB 1   WCI   5
DOUGLAS        PTSUNNY   29  17  61 SW8       30.10R WCI  21

$$
WYZ021-027>030-104>119-050000-
SOUTHERN WYOMING

CITY           SKY/WX    TMP DP  RH WIND       PRES   REMARKS
EVANSTON       CLOUDY    21  15  78 SW17      30.27S WCI   7
FORT BRIDGER   CLOUDY    23  19  86 W23       30.29S WCI   7
ROCK SPRINGS   FAIR      22  14  71 W24       30.21R WCI   5
DIXON          LGT SNOW  19  14  82 SW9G18    30.30S VSB 3/4 WCI   8
RAWLINS        CLOUDY    19  11  70 SW15      30.17F WCI   5
SARATOGA       LGT SNOW  21  14  73 SW8       30.19F WCI  12
LARAMIE        CLOUDY    22  11  62 SW23      30.08R WCI   6
CHEYENNE       CLOUDY    30  13  49 W13       30.09R WCI  20
TORRINGTON     CLOUDY    31  17  56 W14       30.11S WCI  21
PINE BLUFFS    FAIR      30  10  43 SW6       30.12S WCI  24

$$



USA.gov is the U.S. government's official web portal to all federal, state and local government web resources and services.